When you browse on this site, cookies collect data to enhance your experience and personalize the content and advertising you see.
Visit our Privacy Policy to learn more. By continuing to use the site, you agree to this use of cookies and data.
  • In United Kingdom
  • List of Countries
  • For 7 days
  • Water Temperature
  • Satellite Maps
  • Weather Map
  • Weather Widgets
  • user-avatar
    Login

    Hourly Weather Aksholak

    Today, 21 June, Friday

    Time Temperature Precipitation Wind Pressure Humidity
    00:00 +27°C° 0 mm 5 mps 744 mmHg 28%
    01:00 +27°C° 0 mm 5 mps 744 mmHg 28%
    02:00 +26°C° 0 mm 5 mps 744 mmHg 28%
    03:00 +26°C° 0 mm 4 mps 744 mmHg 28%
    04:00 +25°C° 0 mm 4 mps 744 mmHg 28%
    05:00 +27°C° 0 mm 5 mps 744 mmHg 25%
    06:00 +29°C° 0 mm 5 mps 745 mmHg 22%
    07:00 +30°C° 0 mm 5 mps 745 mmHg 19%
    08:00 +34°C° 0 mm 4 mps 745 mmHg 15%
    09:00 +36°C° 0 mm 4 mps 745 mmHg 12%
    10:00 +38°C° 0 mm 4 mps 745 mmHg 9%
    11:00 +40°C° 0 mm 4 mps 745 mmHg 8%
    12:00 +41°C° 0 mm 4 mps 745 mmHg 8%
    13:00 +41°C° 0 mm 4 mps 745 mmHg 8%
    14:00 +41°C° 0 mm 5 mps 745 mmHg 8%
    15:00 +42°C° 0 mm 5 mps 745 mmHg 8%
    16:00 +42°C° 0 mm 6 mps 744 mmHg 8%
    17:00 +41°C° 0 mm 7 mps 744 mmHg 9%
    18:00 +39°C° 0 mm 7 mps 744 mmHg 10%
    19:00 +38°C° 0 mm 8 mps 744 mmHg 11%
    20:00 +36°C° 0 mm 7 mps 744 mmHg 13%
    21:00 +34°C° 0 mm 6 mps 745 mmHg 14%
    22:00 +32°C° 0 mm 5 mps 745 mmHg 16%
    23:00 +32°C° 0 mm 4 mps 745 mmHg 17%

    Tomorrow, 22 June, Saturday

    Time Temperature Precipitation Wind Pressure Humidity
    00:00 +30°C° 0 mm 4 mps 745 mmHg 17%
    01:00 +30°C° 0 mm 4 mps 745 mmHg 18%
    02:00 +29°C° 0 mm 3 mps 745 mmHg 19%
    03:00 +28°C° 0 mm 3 mps 746 mmHg 20%
    04:00 +27°C° 0 mm 2 mps 746 mmHg 21%
    05:00 +29°C° 0 mm 3 mps 746 mmHg 19%
    06:00 +30°C° 0 mm 3 mps 747 mmHg 17%
    07:00 +33°C° 0 mm 3 mps 747 mmHg 16%
    08:00 +34°C° 0 mm 3 mps 747 mmHg 14%
    09:00 +36°C° 0 mm 2 mps 748 mmHg 13%
    10:00 +38°C° 0 mm 2 mps 748 mmHg 12%
    11:00 +39°C° 0 mm 2 mps 748 mmHg 11%
    12:00 +40°C° 0 mm 2 mps 748 mmHg 10%
    13:00 +40°C° 0 mm 3 mps 748 mmHg 10%
    14:00 +42°C° 0 mm 3 mps 748 mmHg 9%
    15:00 +42°C° 0 mm 3 mps 747 mmHg 9%
    16:00 +42°C° 0 mm 3 mps 747 mmHg 9%
    17:00 +41°C° 0 mm 5 mps 747 mmHg 10%
    18:00 +40°C° 0 mm 6 mps 747 mmHg 12%
    19:00 +39°C° 0 mm 7 mps 747 mmHg 13%
    20:00 +36°C° 0 mm 7 mps 748 mmHg 16%
    21:00 +34°C° 0 mm 6 mps 748 mmHg 19%
    22:00 +33°C° 0 mm 5 mps 748 mmHg 22%
    23:00 +30°C° 0 mm 5 mps 748 mmHg 26%

    Day after tomorrow, 23 June, Sunday

    Time Temperature Precipitation Wind Pressure Humidity
    00:00 +29°C° 0 mm 6 mps 748 mmHg 31%
    01:00 +28°C° 0 mm 6 mps 748 mmHg 36%
    02:00 +27°C° 0 mm 5 mps 748 mmHg 38%
    03:00 +27°C° 0 mm 5 mps 749 mmHg 39%
    04:00 +26°C° 0 mm 4 mps 749 mmHg 40%
    05:00 +28°C° 0 mm 5 mps 749 mmHg 37%
    06:00 +29°C° 0 mm 5 mps 750 mmHg 33%
    07:00 +30°C° 0 mm 6 mps 750 mmHg 30%
    08:00 +33°C° 0 mm 6 mps 750 mmHg 25%
    09:00 +35°C° 0 mm 5 mps 750 mmHg 21%
    10:00 +37°C° 0 mm 5 mps 751 mmHg 16%
    11:00 +39°C° 0 mm 5 mps 751 mmHg 15%
    12:00 +40°C° 0 mm 6 mps 751 mmHg 14%
    13:00 +40°C° 0 mm 6 mps 750 mmHg 12%
    14:00 +40°C° 0 mm 7 mps 750 mmHg 13%
    15:00 +40°C° 0 mm 8 mps 750 mmHg 14%
    16:00 +39°C° 0 mm 10 mps 750 mmHg 15%
    17:00 +37°C° 0 mm 9 mps 750 mmHg 17%
    18:00 +34°C° 0 mm 9 mps 750 mmHg 20%
    19:00 +33°C° 0 mm 9 mps 750 mmHg 22%
    20:00 +31°C° 0 mm 8 mps 750 mmHg 27%
    21:00 +29°C° 0 mm 7 mps 751 mmHg 32%
    22:00 +27°C° 0 mm 7 mps 751 mmHg 37%
    23:00 +27°C° 0 mm 6 mps 750 mmHg 39%

    24 June, Monday

    Time Temperature Precipitation Wind Pressure Humidity
    00:00 +26°C° 0 mm 6 mps 750 mmHg 41%
    01:00 +26°C° 0 mm 6 mps 750 mmHg 43%
    02:00 +25°C° 0 mm 5 mps 749 mmHg 45%
    03:00 +25°C° 0 mm 5 mps 749 mmHg 46%
    04:00 +23°C° 0 mm 5 mps 749 mmHg 47%
    05:00 +26°C° 0 mm 5 mps 749 mmHg 39%
    06:00 +28°C° 0 mm 6 mps 749 mmHg 31%
    07:00 +30°C° 0 mm 6 mps 750 mmHg 22%
    08:00 +33°C° 0 mm 6 mps 750 mmHg 19%
    09:00 +35°C° 0 mm 6 mps 750 mmHg 16%
    10:00 +38°C° 0 mm 6 mps 750 mmHg 12%
    11:00 +39°C° 0 mm 6 mps 750 mmHg 11%
    12:00 +40°C° 0 mm 6 mps 749 mmHg 10%
    13:00 +40°C° 0 mm 6 mps 749 mmHg 10%
    14:00 +40°C° 0 mm 6 mps 749 mmHg 9%
    15:00 +40°C° 0 mm 7 mps 749 mmHg 9%
    16:00 +40°C° 0 mm 8 mps 748 mmHg 9%
    17:00 +38°C° 0 mm 8 mps 748 mmHg 10%
    18:00 +37°C° 0 mm 8 mps 748 mmHg 12%
    19:00 +34°C° 0 mm 8 mps 749 mmHg 13%
    20:00 +32°C° 0 mm 7 mps 749 mmHg 18%
    21:00 +29°C° 0 mm 6 mps 749 mmHg 22%
    22:00 +27°C° 0 mm 5 mps 749 mmHg 26%
    23:00 +26°C° 0 mm 4 mps 748 mmHg 28%

    25 June, Tuesday

    Time Temperature Precipitation Wind Pressure Humidity
    00:00 +25°C° 0 mm 4 mps 748 mmHg 30%
    01:00 +25°C° 0 mm 4 mps 748 mmHg 32%
    02:00 +24°C° 0 mm 3 mps 748 mmHg 33%
    03:00 +24°C° 0 mm 3 mps 747 mmHg 34%
    04:00 +24°C° 0 mm 3 mps 747 mmHg 35%
    05:00 +25°C° 0 mm 3 mps 747 mmHg 32%
    06:00 +27°C° 0 mm 3 mps 747 mmHg 29%
    07:00 +29°C° 0 mm 3 mps 748 mmHg 26%
    08:00 +31°C° 0 mm 3 mps 748 mmHg 21%
    09:00 +34°C° 0 mm 2 mps 748 mmHg 17%
    10:00 +37°C° 0 mm 2 mps 748 mmHg 12%
    11:00 +36°C° 0 mm 1 mps 747 mmHg 11%
    12:00 +37°C° 0 mm 1 mps 747 mmHg 10%
    13:00 +39°C° 0 mm 1 mps 747 mmHg 8%
    14:00 +40°C° 0 mm 1 mps 746 mmHg 8%
    15:00 +40°C° 0 mm 2 mps 746 mmHg 8%
    16:00 +40°C° 0 mm 2 mps 746 mmHg 8%
    17:00 +40°C° 0 mm 4 mps 746 mmHg 10%
    18:00 +39°C° 0 mm 5 mps 745 mmHg 12%
    19:00 +36°C° 0 mm 6 mps 745 mmHg 14%
    20:00 +35°C° 0 mm 6 mps 745 mmHg 17%
    21:00 +33°C° 0 mm 5 mps 745 mmHg 20%
    22:00 +30°C° 0 mm 4 mps 745 mmHg 23%
    23:00 +30°C° 0 mm 4 mps 745 mmHg 23%

    26 June, Wednesday

    Time Temperature Precipitation Wind Pressure Humidity
    00:00 +30°C° 0 mm 4 mps 744 mmHg 24%
    01:00 +29°C° 0 mm 4 mps 744 mmHg 24%
    02:00 +29°C° 0 mm 4 mps 744 mmHg 24%
    03:00 +29°C° 0 mm 3 mps 744 mmHg 24%
    04:00 +29°C° 0 mm 3 mps 743 mmHg 24%
    05:00 +30°C° 0 mm 3 mps 743 mmHg 21%
    06:00 +33°C° 0 mm 4 mps 743 mmHg 19%
    07:00 +34°C° 0 mm 4 mps 743 mmHg 16%
    08:00 +36°C° 0 mm 4 mps 743 mmHg 13%
    09:00 +38°C° 0 mm 3 mps 743 mmHg 10%
    10:00 +40°C° 0 mm 3 mps 743 mmHg 7%
    11:00 +42°C° 0 mm 4 mps 742 mmHg 7%
    12:00 +43°C° 0 mm 5 mps 742 mmHg 7%
    13:00 +45°C° 0 mm 6 mps 742 mmHg 7%
    14:00 +45°C° 0 mm 6 mps 741 mmHg 7%
    15:00 +46°C° 0 mm 6 mps 740 mmHg 7%
    16:00 +46°C° 0 mm 6 mps 740 mmHg 7%
    17:00 +45°C° 0 mm 6 mps 740 mmHg 9%
    18:00 +44°C° 0 mm 6 mps 739 mmHg 11%
    19:00 +42°C° 0 mm 6 mps 739 mmHg 13%
    20:00 +40°C° 0 mm 5 mps 739 mmHg 15%
    21:00 +39°C° 0 mm 5 mps 739 mmHg 17%
    22:00 +36°C° 0 mm 5 mps 739 mmHg 18%
    23:00 +35°C° 0 mm 4 mps 739 mmHg 19%
    Show more